Regional Weather Roundup
Issued by NWS Bismarck, ND

Home | Current Version | Previous Version | Text Only | Print | Product List | Glossary On
Versions: 1 2 3 4 5 6 7 8 9 10 11 12 13 14 15 16 17 18 19 20 21 22 23 24 25 26 27 28 29 30 31 32 33 34 35 36 37 38 39 40 41 42 43 44 45 46 47 48 49 50
000
ASUS43 KBIS 230010
RWRBIS

NWR BROADCAST TEXT
NATIONAL WEATHER SERVICE BISMARCK ND
700 PM CDT WED MAR 22 2017

NOTE: "FAIR" INDICATES FEW OR NO CLOUDS BELOW 12,000 FEET WITH NO
SIGNIFICANT WEATHER AND/OR OBSTRUCTIONS TO VISIBILITY.


CITY           SKY/WX    TMP DP  RH WIND       PRES   REMARKS
WILLISTON      FAIR      52  32  46 SE8       29.78S
MINOT          FAIR      40  30  67 SE15      29.86S
MINOT AFB      FAIR      38  31  76 SE13      29.86S
BISMARCK       FAIR      44  31  60 SE22      29.88F
DICKINSON      FAIR      54  36  50 S8        29.76F
GARRISON         N/A     40  32  73 SE15      29.84S
HETTINGER ARPT FAIR      58  37  45 SE6       29.79S
JAMESTOWN      CLOUDY    32  26  78 SE16      30.02F
HAZEN          FAIR      46  32  57 SE14G22   29.86R
LINTON           N/A     37  34  87 SE17G23   29.92F
MANDAN         FAIR      43  30  61 SE16G25   29.87F
RUGBY            N/A     32  28  86 SE20G28   29.93S
STANLEY        FAIR      41  36  81 SE13      29.83S
TIOGA          FAIR      41  37  87 SE10      29.81F
WATFORD CITY   FAIR      50  36  57 S7        29.79S
$$

CITY           SKY/WX    TMP DP  RH WIND       PRES   REMARKS
GRAND FORKS    CLOUDY    30  17  58 SE21      30.13F WCI  17
GRAND FORKS AF CLOUDY    29  20  68 SE17G25   30.12F WCI  18
DEVILS LAKE    FAIR      29  23  78 SE24      29.99F WCI  15
FARGO          CLOUDY    33  22  63 SE23G32   30.14F
GRAFTON        CLOUDY    30  23  74 SE22G33   30.14F WCI  17
GWINNER        CLOUDY    34  25  69 MISG      30.09S
ROLLA          CLOUDY    27  25  93 S23       29.94F WCI  12
$$

CITY           SKY/WX    TMP DP  RH WIND       PRES   REMARKS
ABERDEEN       CLOUDY    36  23  59 S15       30.06F
MOBRIDGE       FAIR      48  30  49 SE22G32   29.86F
BUFFALO          N/A     60  39  45 W7        29.72R
RAPID CITY     FAIR      61  40  45 N12       29.77S
GLASGOW        FAIR      58  37  45 SE8       29.72F
SIDNEY         FAIR      55  36  48 S6        29.77S
WOLF POINT     FAIR      60  36  40 SW3       29.73F
GLENDIVE       FAIR      53  37  54 SE8       29.77S
MILES CITY     FAIR      58  38  47 S8        29.75F
BAKER          FAIR      54  37  52 W6        29.78F
$$

CITY           SKY/WX    TMP DP  RH WIND       PRES   REMARKS
BILLINGS       FAIR      63  37  38 SE12      29.71F
GREAT FALLS    FAIR      58  21  24 W14       29.74S
REGINA         MOSUNNY   37  30  75 SE18G25   29.72F
ESTEVAN        MOSUNNY   37  32  81 SE13      29.79F
$$




USA.gov is the U.S. government's official web portal to all federal, state and local government web resources and services.